Tracking 30009 objects as of 7-Dec-2024
HD Live streaming from Space Station
objects crossing your sky now

STARLINK-11261

Track STARLINK-11261 now!
10-day predictions
STARLINK-11261 is classified as:


NORAD ID: 60724
Int'l Code: 2024-152E
Perigee: 365.4 km
Apogee: 368.3 km
Inclination: 53.2 °
Period: 91.7 minutes
Semi major axis: 6737 km
RCS: Unknown
Launch date: August 28, 2024
Source: United States (US)
Launch site: AIR FORCE EASTERN TEST RANGE (AFETR)
Your satellite tracking list
Your tracking list is empty




NASA's NSSDC Master Catalog

Two Line Element Set (TLE):
1 60724U 24152E   24342.03815843 -.00001155  00000-0 -46565-5 0  9995
2 60724  53.1604 212.4603 0002090  84.8016 275.3241 15.69717665 16965
Source of the keplerian elements: AFSPC